owner,sensor,date,latitude,longitude,air_pressure(mBar),qcFlag 
WAVCIS,ioos:station:WAVCIS:CSI15:1,2012-01-01T00:00:00Z,28.8332,-90.8320,1017.08,11111222 
WAVCIS,ioos:station:WAVCIS:CSI15:1,2012-01-01T01:00:00Z,28.8332,-90.8320,1017.44,11111222 
WAVCIS,ioos:station:WAVCIS:CSI15:1,2012-01-01T02:00:00Z,28.8332,-90.8320,1017.76,11111222 
WAVCIS,ioos:station:WAVCIS:CSI15:1,2012-01-01T03:00:00Z,28.8332,-90.8320,1018.05,11111222 
WAVCIS,ioos:station:WAVCIS:CSI15:1,2012-01-01T04:00:00Z,28.8332,-90.8320,1018.33,11111222 
WAVCIS,ioos:station:WAVCIS:CSI15:1,2012-01-01T05:00:00Z,28.8332,-90.8320,1018.72,11111222 
WAVCIS,ioos:station:WAVCIS:CSI15:1,2012-01-01T06:00:00Z,28.8332,-90.8320,1018.95,11111222 
WAVCIS,ioos:station:WAVCIS:CSI15:1,2012-01-01T07:00:00Z,28.8332,-90.8320,1018.68,11111222 
WAVCIS,ioos:station:WAVCIS:CSI15:1,2012-01-01T08:00:00Z,28.8332,-90.8320,1018.46,11111222 
WAVCIS,ioos:station:WAVCIS:CSI15:1,2012-01-01T09:00:00Z,28.8332,-90.8320,1018.62,11111222 
WAVCIS,ioos:station:WAVCIS:CSI15:1,2012-01-01T10:00:00Z,28.8332,-90.8320,1018.56,11111222 
WAVCIS,ioos:station:WAVCIS:CSI15:1,2012-01-01T11:00:00Z,28.8332,-90.8320,1019.27,11111222 
WAVCIS,ioos:station:WAVCIS:CSI15:1,2012-01-01T12:00:00Z,28.8332,-90.8320,1020.12,11111222 
WAVCIS,ioos:station:WAVCIS:CSI15:1,2012-01-01T13:00:00Z,28.8332,-90.8320,1020.94,11111222 
WAVCIS,ioos:station:WAVCIS:CSI15:1,2012-01-01T14:00:00Z,28.8332,-90.8320,1021.71,11111222 
WAVCIS,ioos:station:WAVCIS:CSI15:1,2012-01-01T15:00:00Z,28.8332,-90.8320,1022.01,11111222 
WAVCIS,ioos:station:WAVCIS:CSI15:1,2012-01-01T16:00:00Z,28.8332,-90.8320,1022.42,11111222 
WAVCIS,ioos:station:WAVCIS:CSI15:1,2012-01-01T17:00:00Z,28.8332,-90.8320,1022.04,11111222 
WAVCIS,ioos:station:WAVCIS:CSI15:1,2012-01-01T18:00:00Z,28.8332,-90.8320,1021.12,11111222 
WAVCIS,ioos:station:WAVCIS:CSI15:1,2012-01-01T19:00:00Z,28.8332,-90.8320,1020.44,11111222 
WAVCIS,ioos:station:WAVCIS:CSI15:1,2012-01-01T20:00:00Z,28.8332,-90.8320,1019.97,11111222 
WAVCIS,ioos:station:WAVCIS:CSI15:1,2012-01-01T21:00:00Z,28.8332,-90.8320,1019.86,11111222 
WAVCIS,ioos:station:WAVCIS:CSI15:1,2012-01-01T22:00:00Z,28.8332,-90.8320,1020.25,11111222 
WAVCIS,ioos:station:WAVCIS:CSI15:1,2012-01-01T23:00:00Z,28.8332,-90.8320,1021.07,11111222 
WAVCIS,ioos:station:WAVCIS:CSI15:1,2012-01-02T00:00:00Z,28.8332,-90.8320,1021.87,11111222 
WAVCIS,ioos:station:WAVCIS:CSI15:1,2012-01-02T01:00:00Z,28.8332,-90.8320,1022.93,11111222 
WAVCIS,ioos:station:WAVCIS:CSI15:1,2012-01-02T02:00:00Z,28.8332,-90.8320,1023.81,11111222 
WAVCIS,ioos:station:WAVCIS:CSI15:1,2012-01-02T03:00:00Z,28.8332,-90.8320,1024.98,11111222 
WAVCIS,ioos:station:WAVCIS:CSI15:1,2012-01-02T04:00:00Z,28.8332,-90.8320,1025.17,11111222 
WAVCIS,ioos:station:WAVCIS:CSI15:1,2012-01-02T05:00:00Z,28.8332,-90.8320,1025.47,11111222 
WAVCIS,ioos:station:WAVCIS:CSI15:1,2012-01-02T06:00:00Z,28.8332,-90.8320,1025.37,11111222 
WAVCIS,ioos:station:WAVCIS:CSI15:1,2012-01-02T07:00:00Z,28.8332,-90.8320,1025.44,11111222 
WAVCIS,ioos:station:WAVCIS:CSI15:1,2012-01-02T08:00:00Z,28.8332,-90.8320,1025.36,11111222 
WAVCIS,ioos:station:WAVCIS:CSI15:1,2012-01-02T09:00:00Z,28.8332,-90.8320,1024.99,11111222 
WAVCIS,ioos:station:WAVCIS:CSI15:1,2012-01-02T10:00:00Z,28.8332,-90.8320,1025.97,11111222 
WAVCIS,ioos:station:WAVCIS:CSI15:1,2012-01-02T11:00:00Z,28.8332,-90.8320,1026.72,11111222 
WAVCIS,ioos:station:WAVCIS:CSI15:1,2012-01-02T12:00:00Z,28.8332,-90.8320,1026.9,11111222 
WAVCIS,ioos:station:WAVCIS:CSI15:1,2012-01-02T13:00:00Z,28.8332,-90.8320,1028.13,11111222 
WAVCIS,ioos:station:WAVCIS:CSI15:1,2012-01-02T14:00:00Z,28.8332,-90.8320,1029.55,11111222 
WAVCIS,ioos:station:WAVCIS:CSI15:1,2012-01-02T15:00:00Z,28.8332,-90.8320,1030.78,11111222 
WAVCIS,ioos:station:WAVCIS:CSI15:1,2012-01-02T16:00:00Z,28.8332,-90.8320,1031.34,11111222 
WAVCIS,ioos:station:WAVCIS:CSI15:1,2012-01-02T17:00:00Z,28.8332,-90.8320,1030.93,11111222 
WAVCIS,ioos:station:WAVCIS:CSI15:1,2012-01-02T18:00:00Z,28.8332,-90.8320,1030.1,11111222 
WAVCIS,ioos:station:WAVCIS:CSI15:1,2012-01-02T19:00:00Z,28.8332,-90.8320,1029.02,11111222 
WAVCIS,ioos:station:WAVCIS:CSI15:1,2012-01-02T20:00:00Z,28.8332,-90.8320,1028.51,11111222 
WAVCIS,ioos:station:WAVCIS:CSI15:1,2012-01-02T21:00:00Z,28.8332,-90.8320,1028.14,11111222 
WAVCIS,ioos:station:WAVCIS:CSI15:1,2012-01-02T22:00:00Z,28.8332,-90.8320,1028.14,11111222 
WAVCIS,ioos:station:WAVCIS:CSI15:1,2012-01-02T23:00:00Z,28.8332,-90.8320,1028.18,11111222 
WAVCIS,ioos:station:WAVCIS:CSI15:1,2012-01-03T00:00:00Z,28.8332,-90.8320,1028.17,11111222 
WAVCIS,ioos:station:WAVCIS:CSI15:1,2012-01-03T01:00:00Z,28.8332,-90.8320,1028.66,11111222 
WAVCIS,ioos:station:WAVCIS:CSI15:1,2012-01-03T02:00:00Z,28.8332,-90.8320,1029.19,11111222 
WAVCIS,ioos:station:WAVCIS:CSI15:1,2012-01-03T03:00:00Z,28.8332,-90.8320,1029.57,11111222 
WAVCIS,ioos:station:WAVCIS:CSI15:1,2012-01-03T04:00:00Z,28.8332,-90.8320,1029.91,11111222 
WAVCIS,ioos:station:WAVCIS:CSI15:1,2012-01-03T05:00:00Z,28.8332,-90.8320,1029.9,11111222 
WAVCIS,ioos:station:WAVCIS:CSI15:1,2012-01-03T06:00:00Z,28.8332,-90.8320,1029.88,11111222 
WAVCIS,ioos:station:WAVCIS:CSI15:1,2012-01-03T07:00:00Z,28.8332,-90.8320,1030.17,11111222 
WAVCIS,ioos:station:WAVCIS:CSI15:1,2012-01-03T08:00:00Z,28.8332,-90.8320,1030.06,11111222 
WAVCIS,ioos:station:WAVCIS:CSI15:1,2012-01-03T09:00:00Z,28.8332,-90.8320,1029.82,11111222 
WAVCIS,ioos:station:WAVCIS:CSI15:1,2012-01-03T10:00:00Z,28.8332,-90.8320,1029.97,11111222 
WAVCIS,ioos:station:WAVCIS:CSI15:1,2012-01-03T11:00:00Z,28.8332,-90.8320,1029.88,11111222 
WAVCIS,ioos:station:WAVCIS:CSI15:1,2012-01-03T12:00:00Z,28.8332,-90.8320,1030.15,11111222 
WAVCIS,ioos:station:WAVCIS:CSI15:1,2012-01-03T13:00:00Z,28.8332,-90.8320,1030.58,11111222 
WAVCIS,ioos:station:WAVCIS:CSI15:1,2012-01-03T14:00:00Z,28.8332,-90.8320,1031.38,11111222 
WAVCIS,ioos:station:WAVCIS:CSI15:1,2012-01-03T15:00:00Z,28.8332,-90.8320,1031.74,11111222 
WAVCIS,ioos:station:WAVCIS:CSI15:1,2012-01-03T16:00:00Z,28.8332,-90.8320,1031.93,11111222 
WAVCIS,ioos:station:WAVCIS:CSI15:1,2012-01-03T17:00:00Z,28.8332,-90.8320,1031.78,11111222 
WAVCIS,ioos:station:WAVCIS:CSI15:1,2012-01-03T18:00:00Z,28.8332,-90.8320,1030.79,11111222 
WAVCIS,ioos:station:WAVCIS:CSI15:1,2012-01-03T19:00:00Z,28.8332,-90.8320,1030.01,11111222 
WAVCIS,ioos:station:WAVCIS:CSI15:1,2012-01-03T20:00:00Z,28.8332,-90.8320,1029.24,11111222 
WAVCIS,ioos:station:WAVCIS:CSI15:1,2012-01-03T21:00:00Z,28.8332,-90.8320,1028.67,11111222 
WAVCIS,ioos:station:WAVCIS:CSI15:1,2012-01-03T22:00:00Z,28.8332,-90.8320,1028.77,11111222 
WAVCIS,ioos:station:WAVCIS:CSI15:1,2012-01-03T23:00:00Z,28.8332,-90.8320,1028.57,11111222 
WAVCIS,ioos:station:WAVCIS:CSI15:1,2012-01-04T00:00:00Z,28.8332,-90.8320,1028.51,11111222 
WAVCIS,ioos:station:WAVCIS:CSI15:1,2012-01-04T01:00:00Z,28.8332,-90.8320,1028.23,11111222 
WAVCIS,ioos:station:WAVCIS:CSI15:1,2012-01-04T02:00:00Z,28.8332,-90.8320,1028.38,11111222 
WAVCIS,ioos:station:WAVCIS:CSI15:1,2012-01-04T03:00:00Z,28.8332,-90.8320,1028.36,11111222 
WAVCIS,ioos:station:WAVCIS:CSI15:1,2012-01-04T04:00:00Z,28.8332,-90.8320,1027.96,11111222 
WAVCIS,ioos:station:WAVCIS:CSI15:1,2012-01-04T05:00:00Z,28.8332,-90.8320,1027.82,11111222 
WAVCIS,ioos:station:WAVCIS:CSI15:1,2012-01-04T06:00:00Z,28.8332,-90.8320,1027.15,11111222 
WAVCIS,ioos:station:WAVCIS:CSI15:1,2012-01-04T07:00:00Z,28.8332,-90.8320,1026.54,11111222 
WAVCIS,ioos:station:WAVCIS:CSI15:1,2012-01-04T08:00:00Z,28.8332,-90.8320,1026.17,11111222 
WAVCIS,ioos:station:WAVCIS:CSI15:1,2012-01-04T09:00:00Z,28.8332,-90.8320,1025.72,11111222 
WAVCIS,ioos:station:WAVCIS:CSI15:1,2012-01-04T10:00:00Z,28.8332,-90.8320,1025.51,11111222 
WAVCIS,ioos:station:WAVCIS:CSI15:1,2012-01-04T11:00:00Z,28.8332,-90.8320,1025.42,11111222 
WAVCIS,ioos:station:WAVCIS:CSI15:1,2012-01-04T12:00:00Z,28.8332,-90.8320,1025.53,11111222 
WAVCIS,ioos:station:WAVCIS:CSI15:1,2012-01-04T13:00:00Z,28.8332,-90.8320,1026.04,11111222 
WAVCIS,ioos:station:WAVCIS:CSI15:1,2012-01-04T14:00:00Z,28.8332,-90.8320,1026.74,11111222 
WAVCIS,ioos:station:WAVCIS:CSI15:1,2012-01-04T15:00:00Z,28.8332,-90.8320,1027.46,11111222 
WAVCIS,ioos:station:WAVCIS:CSI15:1,2012-01-04T16:00:00Z,28.8332,-90.8320,1028.17,11111222 
WAVCIS,ioos:station:WAVCIS:CSI15:1,2012-01-04T17:00:00Z,28.8332,-90.8320,1026.83,11111222 
WAVCIS,ioos:station:WAVCIS:CSI15:1,2012-01-04T18:00:00Z,28.8332,-90.8320,1025.45,11111222 
WAVCIS,ioos:station:WAVCIS:CSI15:1,2012-01-04T19:00:00Z,28.8332,-90.8320,1023.82,11111222 
WAVCIS,ioos:station:WAVCIS:CSI15:1,2012-01-04T20:00:00Z,28.8332,-90.8320,1023.3,11111222 
WAVCIS,ioos:station:WAVCIS:CSI15:1,2012-01-04T21:00:00Z,28.8332,-90.8320,1023.08,11111222 
WAVCIS,ioos:station:WAVCIS:CSI15:1,2012-01-04T22:00:00Z,28.8332,-90.8320,1023.16,11111222 
WAVCIS,ioos:station:WAVCIS:CSI15:1,2012-01-04T23:00:00Z,28.8332,-90.8320,1023.17,11111222 
WAVCIS,ioos:station:WAVCIS:CSI15:1,2012-01-05T00:00:00Z,28.8332,-90.8320,1023.35,11111222 
WAVCIS,ioos:station:WAVCIS:CSI15:1,2012-01-05T01:00:00Z,28.8332,-90.8320,1023.72,11111222 
WAVCIS,ioos:station:WAVCIS:CSI15:1,2012-01-05T02:00:00Z,28.8332,-90.8320,1023.68,11111222 
WAVCIS,ioos:station:WAVCIS:CSI15:1,2012-01-05T03:00:00Z,28.8332,-90.8320,1023.97,11111222 
WAVCIS,ioos:station:WAVCIS:CSI15:1,2012-01-05T04:00:00Z,28.8332,-90.8320,1024.04,11111222 
WAVCIS,ioos:station:WAVCIS:CSI15:1,2012-01-05T05:00:00Z,28.8332,-90.8320,1023.88,11111222 
WAVCIS,ioos:station:WAVCIS:CSI15:1,2012-01-05T06:00:00Z,28.8332,-90.8320,1023.44,11111222 
WAVCIS,ioos:station:WAVCIS:CSI15:1,2012-01-05T07:00:00Z,28.8332,-90.8320,1023.29,11111222 
WAVCIS,ioos:station:WAVCIS:CSI15:1,2012-01-05T08:00:00Z,28.8332,-90.8320,1023.15,11111222 
WAVCIS,ioos:station:WAVCIS:CSI15:1,2012-01-05T09:00:00Z,28.8332,-90.8320,1023.08,11111222 
WAVCIS,ioos:station:WAVCIS:CSI15:1,2012-01-05T10:00:00Z,28.8332,-90.8320,1022.86,11111222 
WAVCIS,ioos:station:WAVCIS:CSI15:1,2012-01-05T11:00:00Z,28.8332,-90.8320,1022.83,11111222 
WAVCIS,ioos:station:WAVCIS:CSI15:1,2012-01-05T12:00:00Z,28.8332,-90.8320,1022.74,11111222 
WAVCIS,ioos:station:WAVCIS:CSI15:1,2012-01-05T13:00:00Z,28.8332,-90.8320,1022.99,11111222 
WAVCIS,ioos:station:WAVCIS:CSI15:1,2012-01-05T14:00:00Z,28.8332,-90.8320,1023.09,11111222 
WAVCIS,ioos:station:WAVCIS:CSI15:1,2012-01-05T15:00:00Z,28.8332,-90.8320,1023.33,11111222 
WAVCIS,ioos:station:WAVCIS:CSI15:1,2012-01-05T16:00:00Z,28.8332,-90.8320,1023.62,11111222 
WAVCIS,ioos:station:WAVCIS:CSI15:1,2012-01-05T17:00:00Z,28.8332,-90.8320,1023.28,11111222 
WAVCIS,ioos:station:WAVCIS:CSI15:1,2012-01-05T18:00:00Z,28.8332,-90.8320,1022.42,11111222 
WAVCIS,ioos:station:WAVCIS:CSI15:1,2012-01-05T19:00:00Z,28.8332,-90.8320,1021.53,11111222 
WAVCIS,ioos:station:WAVCIS:CSI15:1,2012-01-05T20:00:00Z,28.8332,-90.8320,1020.84,11111222 
WAVCIS,ioos:station:WAVCIS:CSI15:1,2012-01-05T21:00:00Z,28.8332,-90.8320,1020.59,11111222 
WAVCIS,ioos:station:WAVCIS:CSI15:1,2012-01-05T22:00:00Z,28.8332,-90.8320,1020.35,11111222 
WAVCIS,ioos:station:WAVCIS:CSI15:1,2012-01-05T23:00:00Z,28.8332,-90.8320,1020.3,11111222 
WAVCIS,ioos:station:WAVCIS:CSI15:1,2012-01-06T00:00:00Z,28.8332,-90.8320,1020.33,11111222 
WAVCIS,ioos:station:WAVCIS:CSI15:1,2012-01-06T01:00:00Z,28.8332,-90.8320,1020.5,11111222 
WAVCIS,ioos:station:WAVCIS:CSI15:1,2012-01-06T02:00:00Z,28.8332,-90.8320,1020.61,11111222 
WAVCIS,ioos:station:WAVCIS:CSI15:1,2012-01-06T03:00:00Z,28.8332,-90.8320,1020.68,11111222 
WAVCIS,ioos:station:WAVCIS:CSI15:1,2012-01-06T04:00:00Z,28.8332,-90.8320,1020.61,11111222 
WAVCIS,ioos:station:WAVCIS:CSI15:1,2012-01-06T05:00:00Z,28.8332,-90.8320,1020.25,11111222 
WAVCIS,ioos:station:WAVCIS:CSI15:1,2012-01-06T06:00:00Z,28.8332,-90.8320,1019.62,11111222 
WAVCIS,ioos:station:WAVCIS:CSI15:1,2012-01-06T07:00:00Z,28.8332,-90.8320,1019.17,11111222 
WAVCIS,ioos:station:WAVCIS:CSI15:1,2012-01-06T08:00:00Z,28.8332,-90.8320,1018.69,11111222 
WAVCIS,ioos:station:WAVCIS:CSI15:1,2012-01-06T09:00:00Z,28.8332,-90.8320,1018.25,11111222 
WAVCIS,ioos:station:WAVCIS:CSI15:1,2012-01-06T10:00:00Z,28.8332,-90.8320,1018.05,11111222 
WAVCIS,ioos:station:WAVCIS:CSI15:1,2012-01-06T11:00:00Z,28.8332,-90.8320,1018.03,11111222 
WAVCIS,ioos:station:WAVCIS:CSI15:1,2012-01-06T12:00:00Z,28.8332,-90.8320,1018.18,11111222 
WAVCIS,ioos:station:WAVCIS:CSI15:1,2012-01-06T13:00:00Z,28.8332,-90.8320,1018.22,11111222 
WAVCIS,ioos:station:WAVCIS:CSI15:1,2012-01-06T14:00:00Z,28.8332,-90.8320,1018.5,11111222 
WAVCIS,ioos:station:WAVCIS:CSI15:1,2012-01-06T15:00:00Z,28.8332,-90.8320,1018.98,11111222 
WAVCIS,ioos:station:WAVCIS:CSI15:1,2012-01-06T16:00:00Z,28.8332,-90.8320,1019.32,11111222 
WAVCIS,ioos:station:WAVCIS:CSI15:1,2012-01-06T17:00:00Z,28.8332,-90.8320,1019.43,11111222 
WAVCIS,ioos:station:WAVCIS:CSI15:1,2012-01-06T18:00:00Z,28.8332,-90.8320,1018.8,11111222 
WAVCIS,ioos:station:WAVCIS:CSI15:1,2012-01-06T19:00:00Z,28.8332,-90.8320,1017.66,11111222 
WAVCIS,ioos:station:WAVCIS:CSI15:1,2012-01-06T20:00:00Z,28.8332,-90.8320,1017.11,11111222 
WAVCIS,ioos:station:WAVCIS:CSI15:1,2012-01-06T21:00:00Z,28.8332,-90.8320,1016.87,11111222 
WAVCIS,ioos:station:WAVCIS:CSI15:1,2012-01-06T22:00:00Z,28.8332,-90.8320,1016.45,11111222 
WAVCIS,ioos:station:WAVCIS:CSI15:1,2012-01-06T23:00:00Z,28.8332,-90.8320,1016.33,11111222 
WAVCIS,ioos:station:WAVCIS:CSI15:1,2012-01-07T00:00:00Z,28.8332,-90.8320,1016.11,11111222 
WAVCIS,ioos:station:WAVCIS:CSI15:1,2012-01-07T01:00:00Z,28.8332,-90.8320,1016.15,11111222 
WAVCIS,ioos:station:WAVCIS:CSI15:1,2012-01-07T02:00:00Z,28.8332,-90.8320,1016.17,11111222 
WAVCIS,ioos:station:WAVCIS:CSI15:1,2012-01-07T03:00:00Z,28.8332,-90.8320,1016.06,11111222 
WAVCIS,ioos:station:WAVCIS:CSI15:1,2012-01-07T04:00:00Z,28.8332,-90.8320,1015.5,11111222 
WAVCIS,ioos:station:WAVCIS:CSI15:1,2012-01-07T05:00:00Z,28.8332,-90.8320,1015.48,11111222 
WAVCIS,ioos:station:WAVCIS:CSI15:1,2012-01-07T06:00:00Z,28.8332,-90.8320,1015.34,11111222 
WAVCIS,ioos:station:WAVCIS:CSI15:1,2012-01-07T07:00:00Z,28.8332,-90.8320,1015.26,11111222 
WAVCIS,ioos:station:WAVCIS:CSI15:1,2012-01-07T08:00:00Z,28.8332,-90.8320,1015.06,11111222 
WAVCIS,ioos:station:WAVCIS:CSI15:1,2012-01-07T09:00:00Z,28.8332,-90.8320,1014.68,11111222 
WAVCIS,ioos:station:WAVCIS:CSI15:1,2012-01-07T10:00:00Z,28.8332,-90.8320,1014.84,11111222 
WAVCIS,ioos:station:WAVCIS:CSI15:1,2012-01-07T11:00:00Z,28.8332,-90.8320,1015.03,11111222 
WAVCIS,ioos:station:WAVCIS:CSI15:1,2012-01-07T12:00:00Z,28.8332,-90.8320,1015.09,11111222 
WAVCIS,ioos:station:WAVCIS:CSI15:1,2012-01-07T13:00:00Z,28.8332,-90.8320,1015.58,11111222 
WAVCIS,ioos:station:WAVCIS:CSI15:1,2012-01-07T14:00:00Z,28.8332,-90.8320,1016.73,11111222 
WAVCIS,ioos:station:WAVCIS:CSI15:1,2012-01-07T15:00:00Z,28.8332,-90.8320,1017.36,11111222 
WAVCIS,ioos:station:WAVCIS:CSI15:1,2012-01-07T16:00:00Z,28.8332,-90.8320,1017.62,11111222 
WAVCIS,ioos:station:WAVCIS:CSI15:1,2012-01-07T17:00:00Z,28.8332,-90.8320,1017.18,11111222 
WAVCIS,ioos:station:WAVCIS:CSI15:1,2012-01-07T18:00:00Z,28.8332,-90.8320,1016.38,11111222 
WAVCIS,ioos:station:WAVCIS:CSI15:1,2012-01-07T19:00:00Z,28.8332,-90.8320,1015.69,11111222 
WAVCIS,ioos:station:WAVCIS:CSI15:1,2012-01-07T20:00:00Z,28.8332,-90.8320,1015.13,11111222 
WAVCIS,ioos:station:WAVCIS:CSI15:1,2012-01-07T21:00:00Z,28.8332,-90.8320,1014.91,11111222 
WAVCIS,ioos:station:WAVCIS:CSI15:1,2012-01-07T22:00:00Z,28.8332,-90.8320,1014.97,11111222 
WAVCIS,ioos:station:WAVCIS:CSI15:1,2012-01-07T23:00:00Z,28.8332,-90.8320,1015.31,11111222 
WAVCIS,ioos:station:WAVCIS:CSI15:1,2012-01-08T00:00:00Z,28.8332,-90.8320,1015.42,11111222 
WAVCIS,ioos:station:WAVCIS:CSI15:1,2012-01-08T01:00:00Z,28.8332,-90.8320,1015.64,11111222 
WAVCIS,ioos:station:WAVCIS:CSI15:1,2012-01-08T02:00:00Z,28.8332,-90.8320,1015.92,11111222 
WAVCIS,ioos:station:WAVCIS:CSI15:1,2012-01-08T03:00:00Z,28.8332,-90.8320,1016.19,11111222 
WAVCIS,ioos:station:WAVCIS:CSI15:1,2012-01-08T04:00:00Z,28.8332,-90.8320,1016.35,11111222 
WAVCIS,ioos:station:WAVCIS:CSI15:1,2012-01-08T05:00:00Z,28.8332,-90.8320,1016.5,11111222 
WAVCIS,ioos:station:WAVCIS:CSI15:1,2012-01-08T06:00:00Z,28.8332,-90.8320,1016.27,11111222 
WAVCIS,ioos:station:WAVCIS:CSI15:1,2012-01-08T07:00:00Z,28.8332,-90.8320,1016.08,11111222 
WAVCIS,ioos:station:WAVCIS:CSI15:1,2012-01-08T08:00:00Z,28.8332,-90.8320,1016.01,11111222 
WAVCIS,ioos:station:WAVCIS:CSI15:1,2012-01-08T09:00:00Z,28.8332,-90.8320,1015.65,11111222 
WAVCIS,ioos:station:WAVCIS:CSI15:1,2012-01-08T10:00:00Z,28.8332,-90.8320,1015.38,11111222 
WAVCIS,ioos:station:WAVCIS:CSI15:1,2012-01-08T11:00:00Z,28.8332,-90.8320,1015.64,11111222 
WAVCIS,ioos:station:WAVCIS:CSI15:1,2012-01-08T12:00:00Z,28.8332,-90.8320,1016.22,11111222 
WAVCIS,ioos:station:WAVCIS:CSI15:1,2012-01-08T13:00:00Z,28.8332,-90.8320,1016.5,11111222 
WAVCIS,ioos:station:WAVCIS:CSI15:1,2012-01-08T14:00:00Z,28.8332,-90.8320,1017.01,11111222 
WAVCIS,ioos:station:WAVCIS:CSI15:1,2012-01-08T15:00:00Z,28.8332,-90.8320,1017.98,11111222 
WAVCIS,ioos:station:WAVCIS:CSI15:1,2012-01-08T16:00:00Z,28.8332,-90.8320,1018.62,11111222 
WAVCIS,ioos:station:WAVCIS:CSI15:1,2012-01-08T17:00:00Z,28.8332,-90.8320,1018.24,11111222 
WAVCIS,ioos:station:WAVCIS:CSI15:1,2012-01-08T18:00:00Z,28.8332,-90.8320,1017.48,11111222 
WAVCIS,ioos:station:WAVCIS:CSI15:1,2012-01-08T19:00:00Z,28.8332,-90.8320,1016.74,11111222 
WAVCIS,ioos:station:WAVCIS:CSI15:1,2012-01-08T20:00:00Z,28.8332,-90.8320,1016.1,11111222 
WAVCIS,ioos:station:WAVCIS:CSI15:1,2012-01-08T21:00:00Z,28.8332,-90.8320,1015.77,11111222 
WAVCIS,ioos:station:WAVCIS:CSI15:1,2012-01-08T22:00:00Z,28.8332,-90.8320,1015.81,11111222 
WAVCIS,ioos:station:WAVCIS:CSI15:1,2012-01-08T23:00:00Z,28.8332,-90.8320,1015.86,11111222 
WAVCIS,ioos:station:WAVCIS:CSI15:1,2012-01-09T00:00:00Z,28.8332,-90.8320,1015.98,11111222 
WAVCIS,ioos:station:WAVCIS:CSI15:1,2012-01-09T01:00:00Z,28.8332,-90.8320,1016.02,11111222 
WAVCIS,ioos:station:WAVCIS:CSI15:1,2012-01-09T02:00:00Z,28.8332,-90.8320,1016.51,11111222 
WAVCIS,ioos:station:WAVCIS:CSI15:1,2012-01-09T03:00:00Z,28.8332,-90.8320,1016.74,11111222 
WAVCIS,ioos:station:WAVCIS:CSI15:1,2012-01-09T04:00:00Z,28.8332,-90.8320,1016.76,11111222 
WAVCIS,ioos:station:WAVCIS:CSI15:1,2012-01-09T05:00:00Z,28.8332,-90.8320,1016.4,11111222 
WAVCIS,ioos:station:WAVCIS:CSI15:1,2012-01-09T06:00:00Z,28.8332,-90.8320,1016.22,11111222 
WAVCIS,ioos:station:WAVCIS:CSI15:1,2012-01-09T07:00:00Z,28.8332,-90.8320,1015.84,11111222 
WAVCIS,ioos:station:WAVCIS:CSI15:1,2012-01-09T08:00:00Z,28.8332,-90.8320,1015.75,11111222 
WAVCIS,ioos:station:WAVCIS:CSI15:1,2012-01-09T09:00:00Z,28.8332,-90.8320,1015.5,11111222 
WAVCIS,ioos:station:WAVCIS:CSI15:1,2012-01-09T10:00:00Z,28.8332,-90.8320,1014.7,11111222 
WAVCIS,ioos:station:WAVCIS:CSI15:1,2012-01-09T11:00:00Z,28.8332,-90.8320,1014.78,11111222 
WAVCIS,ioos:station:WAVCIS:CSI15:1,2012-01-09T12:00:00Z,28.8332,-90.8320,1014.75,11111222 
WAVCIS,ioos:station:WAVCIS:CSI15:1,2012-01-09T13:00:00Z,28.8332,-90.8320,1015.19,11111222 
WAVCIS,ioos:station:WAVCIS:CSI15:1,2012-01-09T14:00:00Z,28.8332,-90.8320,1015.25,11111222 
WAVCIS,ioos:station:WAVCIS:CSI15:1,2012-01-09T15:00:00Z,28.8332,-90.8320,1015.34,11111222 
WAVCIS,ioos:station:WAVCIS:CSI15:1,2012-01-09T16:00:00Z,28.8332,-90.8320,1015.86,11111222 
WAVCIS,ioos:station:WAVCIS:CSI15:1,2012-01-09T17:00:00Z,28.8332,-90.8320,1015.66,11111222 
WAVCIS,ioos:station:WAVCIS:CSI15:1,2012-01-09T18:00:00Z,28.8332,-90.8320,1014.99,11111222 
WAVCIS,ioos:station:WAVCIS:CSI15:1,2012-01-09T19:00:00Z,28.8332,-90.8320,1014.23,11111222 
WAVCIS,ioos:station:WAVCIS:CSI15:1,2012-01-09T20:00:00Z,28.8332,-90.8320,1013.11,11111222 
WAVCIS,ioos:station:WAVCIS:CSI15:1,2012-01-09T21:00:00Z,28.8332,-90.8320,1012.61,11111222 
WAVCIS,ioos:station:WAVCIS:CSI15:1,2012-01-09T22:00:00Z,28.8332,-90.8320,1012.55,11111222 
WAVCIS,ioos:station:WAVCIS:CSI15:1,2012-01-09T23:00:00Z,28.8332,-90.8320,1012.4,11111222 
WAVCIS,ioos:station:WAVCIS:CSI15:1,2012-01-10T00:00:00Z,28.8332,-90.8320,1011.84,11111222 
WAVCIS,ioos:station:WAVCIS:CSI15:1,2012-01-10T01:00:00Z,28.8332,-90.8320,1012.59,11111222 
WAVCIS,ioos:station:WAVCIS:CSI15:1,2012-01-10T02:00:00Z,28.8332,-90.8320,1012.84,11111222 
WAVCIS,ioos:station:WAVCIS:CSI15:1,2012-01-10T03:00:00Z,28.8332,-90.8320,1012.54,11111222 
WAVCIS,ioos:station:WAVCIS:CSI15:1,2012-01-10T04:00:00Z,28.8332,-90.8320,1012.45,11111222 
WAVCIS,ioos:station:WAVCIS:CSI15:1,2012-01-10T05:00:00Z,28.8332,-90.8320,1011.88,11111222 
WAVCIS,ioos:station:WAVCIS:CSI15:1,2012-01-10T06:00:00Z,28.8332,-90.8320,1011.24,11111222 
WAVCIS,ioos:station:WAVCIS:CSI15:1,2012-01-10T07:00:00Z,28.8332,-90.8320,1010.76,11111222 
WAVCIS,ioos:station:WAVCIS:CSI15:1,2012-01-10T08:00:00Z,28.8332,-90.8320,1010.84,11111222 
WAVCIS,ioos:station:WAVCIS:CSI15:1,2012-01-10T09:00:00Z,28.8332,-90.8320,1010.55,11111222 
WAVCIS,ioos:station:WAVCIS:CSI15:1,2012-01-10T10:00:00Z,28.8332,-90.8320,1010.26,11111222 
WAVCIS,ioos:station:WAVCIS:CSI15:1,2012-01-10T11:00:00Z,28.8332,-90.8320,1009.73,11111222 
WAVCIS,ioos:station:WAVCIS:CSI15:1,2012-01-10T12:00:00Z,28.8332,-90.8320,1009.17,11111222 
WAVCIS,ioos:station:WAVCIS:CSI15:1,2012-01-10T13:00:00Z,28.8332,-90.8320,1008.9,11111222 
WAVCIS,ioos:station:WAVCIS:CSI15:1,2012-01-10T14:00:00Z,28.8332,-90.8320,1008.91,11111222 
WAVCIS,ioos:station:WAVCIS:CSI15:1,2012-01-10T15:00:00Z,28.8332,-90.8320,1009.2,11111222 
WAVCIS,ioos:station:WAVCIS:CSI15:1,2012-01-10T16:00:00Z,28.8332,-90.8320,1009.15,11111222 
WAVCIS,ioos:station:WAVCIS:CSI15:1,2012-01-10T17:00:00Z,28.8332,-90.8320,1008.6,11111222 
WAVCIS,ioos:station:WAVCIS:CSI15:1,2012-01-10T18:00:00Z,28.8332,-90.8320,1008.05,11111222 
WAVCIS,ioos:station:WAVCIS:CSI15:1,2012-01-10T19:00:00Z,28.8332,-90.8320,1007.4,11111222 
WAVCIS,ioos:station:WAVCIS:CSI15:1,2012-01-10T20:00:00Z,28.8332,-90.8320,1007.337,11111222 
WAVCIS,ioos:station:WAVCIS:CSI15:1,2012-01-10T21:00:00Z,28.8332,-90.8320,1007.41,11111222 
WAVCIS,ioos:station:WAVCIS:CSI15:1,2012-01-10T22:00:00Z,28.8332,-90.8320,1007.58,11111222 
WAVCIS,ioos:station:WAVCIS:CSI15:1,2012-01-10T23:00:00Z,28.8332,-90.8320,1007.83,11111222 
WAVCIS,ioos:station:WAVCIS:CSI15:1,2012-01-11T00:00:00Z,28.8332,-90.8320,1007.77,11111222 
WAVCIS,ioos:station:WAVCIS:CSI15:1,2012-01-11T01:00:00Z,28.8332,-90.8320,1007.75,11111222 
WAVCIS,ioos:station:WAVCIS:CSI15:1,2012-01-11T02:00:00Z,28.8332,-90.8320,1007.48,11111222 
WAVCIS,ioos:station:WAVCIS:CSI15:1,2012-01-11T03:00:00Z,28.8332,-90.8320,1007.91,11111222 
WAVCIS,ioos:station:WAVCIS:CSI15:1,2012-01-11T04:00:00Z,28.8332,-90.8320,1008.27,11111222 
WAVCIS,ioos:station:WAVCIS:CSI15:1,2012-01-11T05:00:00Z,28.8332,-90.8320,1008.09,11111222 
WAVCIS,ioos:station:WAVCIS:CSI15:1,2012-01-11T06:00:00Z,28.8332,-90.8320,1007.68,11111222 
WAVCIS,ioos:station:WAVCIS:CSI15:1,2012-01-11T07:00:00Z,28.8332,-90.8320,1008.02,11111222 
WAVCIS,ioos:station:WAVCIS:CSI15:1,2012-01-11T08:00:00Z,28.8332,-90.8320,1007.53,11111222 
WAVCIS,ioos:station:WAVCIS:CSI15:1,2012-01-11T09:00:00Z,28.8332,-90.8320,1006.938,11111222 
WAVCIS,ioos:station:WAVCIS:CSI15:1,2012-01-11T10:00:00Z,28.8332,-90.8320,1006.701,11111222 
WAVCIS,ioos:station:WAVCIS:CSI15:1,2012-01-11T11:00:00Z,28.8332,-90.8320,1007.011,11111222 
WAVCIS,ioos:station:WAVCIS:CSI15:1,2012-01-11T12:00:00Z,28.8332,-90.8320,1007.298,11111222 
WAVCIS,ioos:station:WAVCIS:CSI15:1,2012-01-11T13:00:00Z,28.8332,-90.8320,1007.48,11111222 
WAVCIS,ioos:station:WAVCIS:CSI15:1,2012-01-11T14:00:00Z,28.8332,-90.8320,1008.06,11111222 
WAVCIS,ioos:station:WAVCIS:CSI15:1,2012-01-11T15:00:00Z,28.8332,-90.8320,1008.87,11111222 
WAVCIS,ioos:station:WAVCIS:CSI15:1,2012-01-11T16:00:00Z,28.8332,-90.8320,1009.61,11111222 
WAVCIS,ioos:station:WAVCIS:CSI15:1,2012-01-11T17:00:00Z,28.8332,-90.8320,1009.34,11111222 
WAVCIS,ioos:station:WAVCIS:CSI15:1,2012-01-11T18:00:00Z,28.8332,-90.8320,1008.56,11111222 
WAVCIS,ioos:station:WAVCIS:CSI15:1,2012-01-11T19:00:00Z,28.8332,-90.8320,1007.43,11111222 
WAVCIS,ioos:station:WAVCIS:CSI15:1,2012-01-11T20:00:00Z,28.8332,-90.8320,1006.81,11111222 
WAVCIS,ioos:station:WAVCIS:CSI15:1,2012-01-11T21:00:00Z,28.8332,-90.8320,1006.455,11111222 
WAVCIS,ioos:station:WAVCIS:CSI15:1,2012-01-11T22:00:00Z,28.8332,-90.8320,1006.736,11111222 